| time (UTC) | temp F | wind direction | speed MPH | gust MPH | rain 1hr in | rain 24hr in | rain mn in | humidity % | barometer mb |
| 20260906133104 | 81 | 211 | 4.0 | 9.0 | 0.00 | 0.00 | 0.00 | 35 | 1007.7 |
| 20260906131557 | 80 | 140 | 3.0 | 7.0 | 0.00 | 0.00 | 0.00 | 34 | 1007.5 |
| 20260906130110 | 81 | 142 | 2.0 | 7.0 | 0.00 | 0.00 | 0.00 | 34 | 1007.5 |
| 20260906124557 | 81 | 148 | 3.0 | 8.0 | 0.00 | 0.00 | 0.00 | 34 | 1007.3 |
| 20260906123058 | 81 | 149 | 5.0 | 11.0 | 0.00 | 0.00 | 0.00 | 33 | 1007.2 |
| 20260906121608 | 81 | 156 | 5.0 | 11.0 | 0.00 | 0.00 | 0.00 | 33 | 1007.3 |
| 20260906120056 | 81 | 165 | 5.0 | 9.0 | 0.00 | 0.00 | 0.00 | 33 | 1007.4 |
| 20260906114612 | 80 | 161 | 5.0 | 9.0 | 0.00 | 0.00 | 0.00 | 32 | 1007.5 |
| 20260906113107 | 80 | 150 | 3.0 | 8.0 | 0.00 | 0.00 | 0.00 | 32 | 1007.4 |
| 20260906111557 | 81 | 139 | 3.0 | 7.0 | 0.00 | 0.00 | 0.00 | 31 | 1007.2 |
| 20260906110056 | 80 | 159 | 2.0 | 7.0 | 0.00 | 0.00 | 0.00 | 31 | 1007.5 |
| 20260906104556 | 80 | 194 | 2.0 | 6.0 | 0.00 | 0.00 | 0.00 | 31 | 1007.7 |
| 20260906103057 | 80 | 143 | 1.0 | 4.0 | 0.00 | 0.00 | 0.00 | 31 | 1007.3 |
| 20260906101601 | 80 | 150 | 2.0 | 4.0 | 0.00 | 0.00 | 0.00 | 30 | 1007.4 |
| 20260906100057 | 80 | 198 | 1.0 | 5.0 | 0.00 | 0.00 | 0.00 | 30 | 1007.4 |
| 20260906094557 | 81 | 180 | 1.0 | 6.0 | 0.00 | 0.00 | 0.00 | 29 | 1007.3 |
| 20260906093057 | 81 | 179 | 2.0 | 6.0 | 0.00 | 0.00 | 0.00 | 29 | 1007.1 |
| 20260906091559 | 81 | 113 | 3.0 | 7.0 | 0.00 | 0.00 | 0.00 | 29 | 1007.2 |
| 20260906090057 | 81 | 145 | 2.0 | 6.0 | 0.00 | 0.00 | 0.00 | 29 | 1007.2 |
| 20260906084557 | 81 | 132 | 5.0 | 8.0 | 0.00 | 0.00 | 0.00 | 29 | 1007.4 |
| 20260906083057 | 81 | 171 | 4.0 | 6.0 | 0.00 | 0.00 | 0.00 | 28 | 1007.4 |
| 20260906081600 | 81 | 135 | 3.0 | 8.0 | 0.00 | 0.00 | 0.00 | 28 | 1007.5 |
| 20260906080106 | 81 | 156 | 2.0 | 6.0 | 0.00 | 0.00 | 0.00 | 27 | 1007.5 |
| 20260906074600 | 81 | 158 | 2.0 | 4.0 | 0.00 | 0.00 | 0.00 | 26 | 1007.5 |
| 20260906073059 | 81 | 142 | 4.0 | 8.0 | 0.00 | 0.00 | 0.00 | 26 | 1007.5 |
| 20260906071608 | 81 | 139 | 3.0 | 5.0 | 0.00 | 0.00 | 0.00 | 27 | 1007.6 |
| 20260906070100 | 81 | 142 | 2.0 | 6.0 | 0.00 | 0.00 | 0.00 | 24 | 1007.4 |
| 20260906070005 | 81 | 172 | 2.0 | 7.0 | 0.00 | 0.00 | 0.00 | 24 | 1007.4 |
| 20260906064603 | 82 | 225 | 2.0 | 4.0 | 0.00 | 0.00 | 0.00 | 25 | 1007.4 |
| 20260906063100 | 82 | 167 | 2.0 | 4.0 | 0.00 | 0.00 | 0.00 | 23 | 1007.2 |
| 20260906063001 | 82 | 165 | 2.0 | 3.0 | 0.00 | 0.00 | 0.00 | 23 | 1007.2 |
| 20260906061603 | 83 | 153 | 1.0 | 3.0 | 0.00 | 0.00 | 0.00 | 22 | 1007.2 |
| 20260906060150 | 83 | 142 | 2.0 | 3.0 | 0.00 | 0.00 | 0.00 | 22 | 1007.3 |
| 20260906054609 | 84 | 162 | 2.0 | 4.0 | 0.00 | 0.00 | 0.00 | 22 | 1007.3 |
| 20260906053101 | 84 | 141 | 3.0 | 6.0 | 0.00 | 0.00 | 0.00 | 21 | 1007.4 |
| 20260906051559 | 84 | 153 | 3.0 | 5.0 | 0.00 | 0.00 | 0.00 | 21 | 1007.4 |
| 20260906050113 | 85 | 138 | 3.0 | 6.0 | 0.00 | 0.00 | 0.00 | 21 | 1007.5 |
| 20260906050005 | 85 | 139 | 3.0 | 6.0 | 0.00 | 0.00 | 0.00 | 21 | 1007.5 |
| 20260906044559 | 85 | 154 | 2.0 | 7.0 | 0.00 | 0.00 | 0.00 | 21 | 1007.4 |
| 20260906043109 | 85 | 161 | 4.0 | 6.0 | 0.00 | 0.00 | 0.00 | 21 | 1007.4 |
| 20260906043003 | 85 | 149 | 4.0 | 7.0 | 0.00 | 0.00 | 0.00 | 21 | 1007.3 |
| 20260906041600 | 85 | 125 | 3.0 | 7.0 | 0.00 | 0.00 | 0.00 | 21 | 1007.4 |
| 20260906040002 | 85 | 144 | 3.0 | 5.0 | 0.00 | 0.00 | 0.00 | 21 | 1007.3 |
| 20260906034602 | 86 | 161 | 3.0 | 4.0 | 0.00 | 0.00 | 0.00 | 21 | 1007.1 |
| 20260906033103 | 86 | 148 | 3.0 | 5.0 | 0.00 | 0.00 | 0.00 | 21 | 1006.8 |
| 20260906031625 | 87 | 147 | 3.0 | 5.0 | 0.00 | 0.00 | 0.00 | 20 | 1006.7 |
| 20260906030100 | 88 | 191 | 2.0 | 5.0 | 0.00 | 0.00 | 0.00 | 20 | 1006.5 |
| 20260906024604 | 89 | 192 | 2.0 | 5.0 | 0.00 | 0.00 | 0.00 | 19 | 1006.4 |
| 20260906023111 | 89 | 221 | 2.0 | 8.0 | 0.00 | 0.00 | 0.00 | 19 | 1006.2 |
| 20260906021600 | 90 | 198 | 3.0 | 9.0 | 0.00 | 0.00 | 0.00 | 18 | 1006.2 |
| 20260906020003 | 91 | 225 | 2.0 | 10.0 | 0.00 | 0.00 | 0.00 | 18 | 1006.1 |
| 20260906014557 | 91 | 200 | 5.0 | 10.0 | 0.00 | 0.00 | 0.00 | 17 | 1006.2 |
| 20260906013058 | 92 | 211 | 7.0 | 13.0 | 0.00 | 0.00 | 0.00 | 16 | 1006.2 |
| 20260906011605 | 94 | 223 | 5.0 | 14.0 | 0.00 | 0.00 | 0.00 | 16 | 1006.3 |
| 20260906010059 | 94 | 205 | 7.0 | 14.0 | 0.00 | 0.00 | 0.00 | 15 | 1006.3 |
| 20260906004600 | 95 | 265 | 6.0 | 14.0 | 0.00 | 0.00 | 0.00 | 15 | 1006.2 |
| 20260906003058 | 96 | 222 | 8.0 | 13.0 | 0.00 | 0.00 | 0.00 | 14 | 1006.2 |
| 20260906001556 | 97 | 213 | 6.0 | 16.0 | 0.00 | 0.00 | 0.00 | 14 | 1006.2 |
| 20260906000108 | 97 | 246 | 6.0 | 14.0 | 0.00 | 0.00 | 0.00 | 14 | 1006.2 |
| 20260905234557 | 98 | 192 | 4.0 | 14.0 | 0.00 | 0.00 | 0.00 | 13 | 1006.1 |
| 20260905233102 | 98 | 211 | 6.0 | 21.0 | 0.00 | 0.00 | 0.00 | 13 | 1006.2 |
| 20260905231616 | 98 | 192 | 7.0 | 16.0 | 0.00 | 0.00 | 0.00 | 13 | 1006.2 |
| 20260905230100 | 99 | 191 | 6.0 | 14.0 | 0.00 | 0.00 | 0.00 | 12 | 1006.3 |
| 20260905224557 | 99 | 254 | 7.0 | 15.0 | 0.00 | 0.00 | 0.00 | 12 | 1006.4 |
| 20260905223057 | 100 | 215 | 5.0 | 9.0 | 0.00 | 0.00 | 0.00 | 12 | 1006.5 |
| 20260905221617 | 99 | 229 | 6.0 | 12.0 | 0.00 | 0.00 | 0.00 | 12 | 1006.5 |
| 20260905220058 | 99 | 224 | 5.0 | 12.0 | 0.00 | 0.00 | 0.00 | 11 | 1006.6 |
| 20260905214604 | 99 | 144 | 7.0 | 13.0 | 0.00 | 0.00 | 0.00 | 10 | 1006.9 |
| 20260905213058 | 99 | 36 | 5.0 | 14.0 | 0.00 | 0.00 | 0.00 | 10 | 1007.2 |
| 20260905211558 | 99 | 211 | 4.0 | 16.0 | 0.00 | 0.00 | 0.00 | 11 | 1007.3 |
| 20260905210106 | 98 | 207 | 8.0 | 18.0 | 0.00 | 0.00 | 0.00 | 11 | 1007.6 |
| 20260905204557 | 98 | 211 | 8.0 | 18.0 | 0.00 | 0.00 | 0.00 | 10 | 1007.6 |
| 20260905203059 | 98 | 236 | 7.0 | 17.0 | 0.00 | 0.00 | 0.00 | 9 | 1007.6 |
| 20260905201557 | 98 | 180 | 8.0 | 17.0 | 0.00 | 0.00 | 0.00 | 9 | 1007.7 |
| 20260905200127 | 98 | 232 | 9.0 | 17.0 | 0.00 | 0.00 | 0.00 | 9 | 1008.0 |
| 20260905194557 | 97 | 218 | 6.0 | 16.0 | 0.00 | 0.00 | 0.00 | 10 | 1008.0 |
| 20260905193057 | 96 | 163 | 7.0 | 15.0 | 0.00 | 0.00 | 0.00 | 10 | 1008.3 |
| 20260905191558 | 96 | 209 | 6.0 | 13.0 | 0.00 | 0.00 | 0.00 | 10 | 1008.4 |
| 20260905190100 | 95 | 196 | 7.0 | 16.0 | 0.00 | 0.00 | 0.00 | 10 | 1008.5 |
| 20260905184600 | 94 | 173 | 4.0 | 12.0 | 0.00 | 0.00 | 0.00 | 11 | 1008.8 |
| 20260905183057 | 93 | 216 | 6.0 | 13.0 | 0.00 | 0.00 | 0.00 | 12 | 1009.0 |
| 20260905181557 | 92 | 229 | 3.0 | 9.0 | 0.00 | 0.00 | 0.00 | 13 | 1009.1 |
| 20260905180112 | 91 | 179 | 5.0 | 11.0 | 0.00 | 0.00 | 0.00 | 14 | 1009.2 |
| 20260905174557 | 90 | 191 | 5.0 | 13.0 | 0.00 | 0.00 | 0.00 | 14 | 1009.1 |
| 20260905173114 | 88 | 211 | 4.0 | 11.0 | 0.00 | 0.00 | 0.00 | 17 | 1009.2 |
| 20260905171557 | 87 | 182 | 3.0 | 9.0 | 0.00 | 0.00 | 0.00 | 18 | 1009.2 |
| 20260905170100 | 86 | 174 | 5.0 | 10.0 | 0.00 | 0.00 | 0.00 | 18 | 1009.3 |
| 20260905164602 | 85 | 196 | 4.0 | 8.0 | 0.00 | 0.00 | 0.00 | 19 | 1009.2 |
| 20260905163056 | 84 | 173 | 6.0 | 11.0 | 0.00 | 0.00 | 0.00 | 19 | 1009.2 |
| 20260905161557 | 83 | 223 | 5.0 | 10.0 | 0.00 | 0.00 | 0.00 | 21 | 1009.2 |
| 20260905160100 | 82 | 166 | 5.0 | 11.0 | 0.00 | 0.00 | 0.00 | 21 | 1009.2 |
| 20260905154602 | 81 | 126 | 4.0 | 10.0 | 0.00 | 0.00 | 0.00 | 22 | 1009.2 |
| 20260905153056 | 80 | 176 | 5.0 | 8.0 | 0.00 | 0.00 | 0.00 | 23 | 1009.2 |
| 20260905151556 | 79 | 222 | 3.0 | 7.0 | 0.00 | 0.00 | 0.00 | 23 | 1009.2 |
| 20260905150055 | 78 | 153 | 3.0 | 10.0 | 0.00 | 0.00 | 0.00 | 24 | 1009.1 |
| 20260905144557 | 76 | 146 | 5.0 | 10.0 | 0.00 | 0.00 | 0.00 | 25 | 1008.9 |
| 20260905143100 | 75 | 165 | 3.0 | 8.0 | 0.00 | 0.00 | 0.00 | 26 | 1008.8 |
| 20260905141557 | 74 | 167 | 3.0 | 9.0 | 0.00 | 0.00 | 0.00 | 28 | 1008.7 |
| 20260905134602 | 72 | 157 | 3.0 | 7.0 | 0.00 | 0.00 | 0.00 | 29 | 1008.2 |